Time,TemperatureF,DewpointF,PressureIn,WindDirection,WindDirectionDegrees,WindSpeedMPH,WindSpeedGustMPH,Humidity,HourlyPrecipIn,Conditions,Clouds,dailyrainin,SolarRadiationWatts/m^2,SoftwareType,DateUTC
2013-02-14 00:00:00,37.9,33.5,29.99,NNW,345,18.4,18.4,84,0.00,CLR,,0.12,0.0,WeatherDisplay:10.37,2013-02-14 05:00:00,
2013-02-14 00:05:00,37.8,33.4,29.99,North,5,18.4,18.4,84,0.00,RA,,0.00,0.0,WeatherDisplay:10.37,2013-02-14 05:05:00,
2013-02-14 00:10:00,37.8,33.7,29.99,North,5,18.4,18.4,85,0.00,CLR,,0.00,0.0,WeatherDisplay:10.37,2013-02-14 05:10:00,
2013-02-14 00:15:00,37.7,33.6,29.99,North,355,18.4,18.4,85,0.00,CLR,,0.00,0.0,WeatherDisplay:10.37,2013-02-14 05:15:00,
2013-02-14 00:20:00,37.8,33.7,30.00,NNW,344,12.0,12.0,85,0.00,CLR,,0.00,0.0,WeatherDisplay:10.37,2013-02-14 05:20:00,
2013-02-14 00:25:00,37.7,33.6,29.99,NNW,345,12.7,12.7,85,0.00,CLR,,0.00,0.0,WeatherDisplay:10.37,2013-02-14 05:25:00,
2013-02-14 00:30:00,37.7,33.6,29.99,North,350,18.4,18.4,85,0.00,CLR,,0.00,0.0,WeatherDisplay:10.37,2013-02-14 05:30:00,
2013-02-14 00:35:00,37.7,33.6,29.99,NNW,345,7.0,7.0,85,0.00,CLR,,0.00,0.0,WeatherDisplay:10.37,2013-02-14 05:35:00,
2013-02-14 00:40:00,37.7,33.6,29.99,NNW,348,16.0,16.0,85,0.00,CLR,,0.00,0.0,WeatherDisplay:10.37,2013-02-14 05:40:00,
2013-02-14 00:45:00,37.7,33.6,29.99,NNW,345,24.2,24.2,85,0.00,CLR,,0.00,0.0,WeatherDisplay:10.37,2013-02-14 05:45:00,
2013-02-14 00:50:00,37.6,33.5,29.99,North,355,23.0,23.0,85,0.00,CLR,,0.00,0.0,WeatherDisplay:10.37,2013-02-14 05:50:00,
2013-02-14 00:55:00,37.6,33.2,30.00,North,355,19.6,19.6,84,0.00,CLR,,0.00,0.0,WeatherDisplay:10.37,2013-02-14 05:55:00,
2013-02-14 01:00:00,37.5,33.1,30.00,NNW,343,21.9,21.9,84,0.00,CLR,,0.00,0.0,WeatherDisplay:10.37,2013-02-14 06:00:00,
2013-02-14 01:05:00,37.4,33.0,30.00,North,355,13.0,13.0,84,0.00,CLR,,0.00,0.0,WeatherDisplay:10.37,2013-02-14 06:05:00,
2013-02-14 01:10:00,37.3,32.9,29.99,NNW,346,21.9,21.9,84,0.00,CLR,,0.00,0.0,WeatherDisplay:10.37,2013-02-14 06:10:00,
2013-02-14 01:15:00,37.3,32.9,29.99,NNW,335,19.6,19.6,84,0.00,CLR,,0.00,0.0,WeatherDisplay:10.37,2013-02-14 06:15:00,
2013-02-14 01:20:00,37.2,33.1,30.00,North,360,15.0,15.0,85,0.00,CLR,,0.00,0.0,WeatherDisplay:10.37,2013-02-14 06:20:00,
2013-02-14 01:25:00,37.0,32.9,30.00,NW,318,12.7,12.7,85,0.00,CLR,,0.00,0.0,WeatherDisplay:10.37,2013-02-14 06:25:00,
2013-02-14 01:30:00,37.0,32.9,30.00,NW,320,15.0,15.0,85,0.00,CLR,,0.00,0.0,WeatherDisplay:10.37,2013-02-14 06:30:00,
2013-02-14 01:35:00,37.0,32.9,30.00,NNW,338,15.0,15.0,85,0.00,CLR,,0.00,0.0,WeatherDisplay:10.37,2013-02-14 06:35:00,
2013-02-14 01:40:00,36.9,32.8,29.99,NNW,338,15.0,15.0,85,0.00,CLR,,0.00,0.0,WeatherDisplay:10.37,2013-02-14 06:40:00,
2013-02-14 01:45:00,36.9,32.8,29.99,NNW,337,12.7,12.7,85,0.00,CLR,,0.00,0.0,WeatherDisplay:10.37,2013-02-14 06:45:00,
2013-02-14 01:50:00,36.9,32.8,29.99,North,355,12.7,12.7,85,0.00,CLR,,0.00,0.0,WeatherDisplay:10.37,2013-02-14 06:50:00,
2013-02-14 01:55:00,36.8,32.7,29.99,NNW,346,10.4,10.4,85,0.00,CLR,,0.00,0.0,WeatherDisplay:10.37,2013-02-14 06:55:00,
2013-02-14 02:00:00,36.8,32.7,29.99,NNW,329,12.7,12.7,85,0.00,CLR,,0.00,0.0,WeatherDisplay:10.37,2013-02-14 07:00:00,
2013-02-14 02:05:00,36.9,32.8,29.99,NNW,336,18.4,18.4,85,0.00,CLR,,0.00,0.0,WeatherDisplay:10.37,2013-02-14 07:05:00,
2013-02-14 02:10:00,37.0,32.9,29.99,NNW,342,21.9,21.9,85,0.00,CLR,,0.00,0.0,WeatherDisplay:10.37,2013-02-14 07:10:00,
2013-02-14 02:15:00,37.0,32.6,30.00,NNW,343,10.4,10.4,84,0.00,CLR,,0.00,0.0,WeatherDisplay:10.37,2013-02-14 07:15:00,
2013-02-14 02:20:00,36.9,32.5,29.99,NNW,347,13.8,13.8,84,0.00,CLR,,0.00,0.0,WeatherDisplay:10.37,2013-02-14 07:20:00,
2013-02-14 02:25:00,36.9,32.5,29.99,NNW,336,12.7,12.7,84,0.00,CLR,,0.00,0.0,WeatherDisplay:10.37,2013-02-14 07:25:00,
2013-02-14 02:30:00,36.8,32.4,29.99,North,355,13.8,13.8,84,0.00,CLR,,0.00,0.0,WeatherDisplay:10.37,2013-02-14 07:30:00,
2013-02-14 02:36:00,36.8,32.4,29.99,NNW,338,11.5,11.5,84,0.00,CLR,,0.00,0.0,WeatherDisplay:10.37,2013-02-14 07:36:00,
2013-02-14 02:41:00,36.7,32.3,29.99,NNW,340,16.1,16.1,84,0.00,CLR,,0.00,0.0,WeatherDisplay:10.37,2013-02-14 07:41:00,
2013-02-14 02:46:00,36.7,32.3,29.99,NNW,327,15.0,15.0,84,0.00,CLR,,0.00,0.0,WeatherDisplay:10.37,2013-02-14 07:46:00,
2013-02-14 02:51:00,36.6,32.2,30.00,North,360,13.8,13.8,84,0.00,CLR,,0.00,0.0,WeatherDisplay:10.37,2013-02-14 07:51:00,
2013-02-14 02:56:00,36.3,31.9,30.00,North,355,11.5,11.5,84,0.00,CLR,,0.00,0.0,WeatherDisplay:10.37,2013-02-14 07:56:00,
2013-02-14 03:01:00,36.1,32.0,30.00,NNW,346,16.0,16.0,85,0.00,CLR,,0.00,0.0,WeatherDisplay:10.37,2013-02-14 08:01:00,
2013-02-14 03:06:00,36.2,32.1,30.00,North,355,12.0,12.0,85,0.00,CLR,,0.00,0.0,WeatherDisplay:10.37,2013-02-14 08:06:00,
2013-02-14 03:11:00,36.1,31.7,30.00,North,355,10.4,10.4,84,0.00,CLR,,0.00,0.0,WeatherDisplay:10.37,2013-02-14 08:11:00,
2013-02-14 03:16:00,35.8,31.7,30.00,NNW,347,12.0,12.0,85,0.00,CLR,,0.00,0.0,WeatherDisplay:10.37,2013-02-14 08:16:00,
2013-02-14 03:21:00,35.8,31.7,30.00,North,350,16.0,16.0,85,0.00,CLR,,0.00,0.0,WeatherDisplay:10.37,2013-02-14 08:21:00,
2013-02-14 03:26:00,36.1,32.0,30.00,NNW,347,13.8,13.8,85,0.00,CLR,,0.00,0.0,WeatherDisplay:10.37,2013-02-14 08:26:00,
2013-02-14 03:31:00,36.1,32.0,30.00,NNW,329,10.4,10.4,85,0.00,CLR,,0.00,0.0,WeatherDisplay:10.37,2013-02-14 08:31:00,
2013-02-14 03:36:00,36.1,32.0,30.00,NNW,340,13.8,13.8,85,0.00,CLR,,0.00,0.0,WeatherDisplay:10.37,2013-02-14 08:36:00,
2013-02-14 03:41:00,36.1,32.0,30.00,NNW,346,19.6,19.6,85,0.00,CLR,,0.00,0.0,WeatherDisplay:10.37,2013-02-14 08:41:00,
2013-02-14 03:46:00,36.3,31.9,30.00,North,355,17.3,17.3,84,0.00,CLR,,0.00,0.0,WeatherDisplay:10.37,2013-02-14 08:46:00,
2013-02-14 03:51:00,36.3,31.9,30.00,NNW,332,10.4,10.4,84,0.00,CLR,,0.00,0.0,WeatherDisplay:10.37,2013-02-14 08:51:00,
2013-02-14 03:56:00,36.1,32.0,30.00,North,5,12.7,12.7,85,0.00,CLR,,0.00,0.0,WeatherDisplay:10.37,2013-02-14 08:56:00,
2013-02-14 04:01:00,36.1,32.0,30.00,North,355,11.5,11.5,85,0.00,CLR,,0.00,0.0,WeatherDisplay:10.37,2013-02-14 09:01:00,
2013-02-14 04:06:00,36.0,31.9,30.00,North,355,13.8,13.8,85,0.00,CLR,,0.00,0.0,WeatherDisplay:10.37,2013-02-14 09:06:00,
2013-02-14 04:11:00,36.1,32.0,30.00,North,5,18.4,18.4,85,0.00,CLR,,0.00,0.0,WeatherDisplay:10.37,2013-02-14 09:11:00,
2013-02-14 04:16:00,36.1,32.0,30.00,North,355,16.1,16.1,85,0.00,CLR,,0.00,0.0,WeatherDisplay:10.37,2013-02-14 09:16:00,
2013-02-14 04:21:00,36.0,31.9,30.00,NNE,20,11.5,11.5,85,0.00,CLR,,0.00,0.0,WeatherDisplay:10.37,2013-02-14 09:21:00,
2013-02-14 04:26:00,36.0,31.9,30.00,NNE,17,15.0,15.0,85,0.00,CLR,,0.00,0.0,WeatherDisplay:10.37,2013-02-14 09:26:00,
2013-02-14 04:31:00,36.1,32.0,30.00,NE,42,24.0,24.0,85,0.00,CLR,,0.00,0.0,WeatherDisplay:10.37,2013-02-14 09:31:00,
2013-02-14 04:36:00,36.2,32.1,30.00,NNW,336,15.0,15.0,85,0.00,CLR,,0.00,0.0,WeatherDisplay:10.37,2013-02-14 09:36:00,
2013-02-14 04:41:00,36.4,32.0,30.00,NNW,346,20.7,20.7,84,0.00,CLR,,0.00,0.0,WeatherDisplay:10.37,2013-02-14 09:41:00,
2013-02-14 04:46:00,36.4,32.0,30.00,North,355,20.7,20.7,84,0.00,CLR,,0.00,0.0,WeatherDisplay:10.37,2013-02-14 09:46:00,
2013-02-14 04:51:00,36.4,32.0,30.00,NNE,17,12.7,12.7,84,0.00,CLR,,0.00,0.0,WeatherDisplay:10.37,2013-02-14 09:51:00,
2013-02-14 04:56:00,36.3,31.9,30.00,NE,43,16.1,16.1,84,0.00,CLR,,0.00,0.0,WeatherDisplay:10.37,2013-02-14 09:56:00,
2013-02-14 05:01:00,36.2,31.8,30.01,NNE,28,17.3,17.3,84,0.00,CLR,,0.00,0.0,WeatherDisplay:10.37,2013-02-14 10:01:00,
2013-02-14 05:06:00,36.2,31.8,30.00,North,355,16.1,16.1,84,0.00,CLR,,0.00,0.0,WeatherDisplay:10.37,2013-02-14 10:06:00,
2013-02-14 05:11:00,36.1,31.7,30.00,NNW,335,12.7,12.7,84,0.00,CLR,,0.00,0.0,WeatherDisplay:10.37,2013-02-14 10:11:00,
2013-02-14 05:16:00,35.9,31.5,30.00,NNE,33,15.0,15.0,84,0.00,CLR,,0.00,0.0,WeatherDisplay:10.37,2013-02-14 10:16:00,
2013-02-14 05:21:00,36.0,31.6,30.01,North,355,13.8,13.8,84,0.00,CLR,,0.00,0.0,WeatherDisplay:10.37,2013-02-14 10:21:00,
2013-02-14 05:26:00,35.9,31.5,30.01,NE,45,11.5,11.5,84,0.00,CLR,,0.00,0.0,WeatherDisplay:10.37,2013-02-14 10:26:00,
2013-02-14 05:31:00,35.9,31.5,30.01,NE,34,13.8,13.8,84,0.00,CLR,,0.00,0.0,WeatherDisplay:10.37,2013-02-14 10:31:00,
2013-02-14 05:36:00,35.7,31.3,30.01,NNW,336,10.0,10.0,84,0.00,CLR,,0.00,0.0,WeatherDisplay:10.37,2013-02-14 10:36:00,
2013-02-14 05:41:00,35.3,31.2,30.01,NW,314,11.5,11.5,85,0.00,CLR,,0.00,0.0,WeatherDisplay:10.37,2013-02-14 10:41:00,
2013-02-14 05:46:00,35.2,31.1,30.01,NNW,333,6.9,6.9,85,0.00,CLR,,0.00,0.0,WeatherDisplay:10.37,2013-02-14 10:46:00,
2013-02-14 05:51:00,35.1,31.0,30.01,North,351,11.5,11.5,85,0.00,CLR,,0.00,0.0,WeatherDisplay:10.37,2013-02-14 10:51:00,
2013-02-14 05:56:00,35.0,31.2,30.01,North,355,11.5,11.5,86,0.00,CLR,,0.00,0.0,WeatherDisplay:10.37,2013-02-14 10:56:00,
2013-02-14 06:01:00,35.0,30.9,30.02,NNW,329,10.4,10.4,85,0.00,CLR,,0.00,0.0,WeatherDisplay:10.37,2013-02-14 11:01:00,
2013-02-14 06:06:00,35.1,31.0,30.02,NW,321,9.2,9.2,85,0.00,CLR,,0.00,0.0,WeatherDisplay:10.37,2013-02-14 11:06:00,
2013-02-14 06:12:00,35.1,31.0,30.02,NW,321,3.5,3.5,85,0.00,CLR,,0.00,0.0,WeatherDisplay:10.37,2013-02-14 11:12:00,
2013-02-14 06:17:00,34.9,30.8,30.03,NW,321,1.1,0.0,85,0.00,CLR,,0.00,0.0,WeatherDisplay:10.37,2013-02-14 11:17:00,
2013-02-14 06:22:00,34.7,30.7,30.04,NW,321,3.5,3.5,85,0.00,CLR,,0.00,0.0,WeatherDisplay:10.37,2013-02-14 11:22:00,
2013-02-14 06:27:00,34.5,30.5,30.04,NW,321,0.0,0.0,85,0.00,CLR,,0.00,0.0,WeatherDisplay:10.37,2013-02-14 11:27:00,
2013-02-14 06:32:00,34.2,30.4,30.04,NW,321,0.0,0.0,86,0.00,CLR,,0.00,0.0,WeatherDisplay:10.37,2013-02-14 11:32:00,
2013-02-14 06:37:00,33.8,30.3,30.04,NW,321,0.0,0.0,87,0.00,CLR,,0.00,0.0,WeatherDisplay:10.37,2013-02-14 11:37:00,
2013-02-14 06:42:00,33.5,30.0,30.04,NW,321,0.0,0.0,87,0.00,CLR,,0.00,0.0,WeatherDisplay:10.37,2013-02-14 11:42:00,
2013-02-14 06:47:00,33.2,30.0,30.04,NW,321,0.0,0.0,88,0.00,CLR,,0.00,0.0,WeatherDisplay:10.37,2013-02-14 11:47:00,
2013-02-14 06:52:00,32.9,29.7,30.05,NW,321,2.0,2.0,88,0.00,CLR,,0.00,0.0,WeatherDisplay:10.37,2013-02-14 11:52:00,
2013-02-14 06:57:00,32.5,29.6,30.05,NW,321,3.5,3.5,89,0.00,CLR,,0.00,0.0,WeatherDisplay:10.37,2013-02-14 11:57:00,
2013-02-14 07:02:00,32.2,29.3,30.05,NW,321,3.5,3.5,89,0.00,CLR,,0.00,0.0,WeatherDisplay:10.37,2013-02-14 12:02:00,
2013-02-14 07:07:00,32.0,29.4,30.05,NW,321,3.5,3.5,90,0.00,CLR,,0.00,0.0,WeatherDisplay:10.37,2013-02-14 12:07:00,
2013-02-14 07:12:00,31.9,29.3,30.05,NW,321,0.0,0.0,90,0.00,CLR,,0.00,0.0,WeatherDisplay:10.37,2013-02-14 12:12:00,
2013-02-14 07:17:00,31.9,29.3,30.05,NW,321,0.0,0.0,90,0.00,CLR,,0.00,0.0,WeatherDisplay:10.37,2013-02-14 12:17:00,
2013-02-14 07:22:00,31.8,29.5,30.06,NW,321,0.0,0.0,91,0.00,CLR,,0.00,0.0,WeatherDisplay:10.37,2013-02-14 12:22:00,
2013-02-14 07:27:00,31.6,29.3,30.07,NW,321,0.0,0.0,91,0.00,CLR,,0.00,0.0,WeatherDisplay:10.37,2013-02-14 12:27:00,
2013-02-14 07:32:00,31.5,29.2,30.06,NW,321,3.5,3.5,91,0.00,CLR,,0.00,0.0,WeatherDisplay:10.37,2013-02-14 12:32:00,
2013-02-14 07:37:00,31.4,29.3,30.06,NW,321,1.1,0.0,92,0.00,CLR,,0.00,9.0,WeatherDisplay:10.37,2013-02-14 12:37:00,
2013-02-14 07:42:00,31.3,29.2,30.07,NW,321,0.0,0.0,92,0.00,CLR,,0.01,14.0,WeatherDisplay:10.37,2013-02-14 12:42:00,
2013-02-14 07:47:00,31.2,29.1,30.08,NW,321,4.0,4.0,92,0.01,RA,,0.01,16.0,WeatherDisplay:10.37,2013-02-14 12:47:00,
2013-02-14 07:52:00,31.0,28.9,30.08,NW,310,3.5,3.5,92,0.01,,,0.01,16.0,WeatherDisplay:10.37,2013-02-14 12:52:00,
2013-02-14 07:57:00,31.0,28.9,30.09,SSW,198,3.0,3.0,92,0.01,CLR,,0.01,26.0,WeatherDisplay:10.37,2013-02-14 12:57:00,
2013-02-14 08:02:00,31.4,29.6,30.09,South,180,1.1,1.1,93,0.01,CLR,,0.01,37.0,WeatherDisplay:10.37,2013-02-14 13:02:00,
2013-02-14 08:07:00,31.7,29.9,30.09,South,179,0.0,0.0,93,0.01,CLR,,0.01,42.0,WeatherDisplay:10.37,2013-02-14 13:07:00,
2013-02-14 08:12:00,31.7,29.6,30.08,South,180,0.0,0.0,92,0.01,CLR,,0.01,42.0,WeatherDisplay:10.37,2013-02-14 13:12:00,
2013-02-14 08:17:00,31.6,29.5,30.09,South,180,0.0,0.0,92,0.01,CLR,,0.01,54.0,WeatherDisplay:10.37,2013-02-14 13:17:00,
2013-02-14 08:22:00,31.6,29.5,30.10,South,180,2.3,2.3,92,0.01,CLR,,0.01,44.0,WeatherDisplay:10.37,2013-02-14 13:22:00,
2013-02-14 08:27:00,31.4,29.6,30.11,South,180,0.0,0.0,93,0.01,CLR,,0.01,56.0,WeatherDisplay:10.37,2013-02-14 13:27:00,
2013-02-14 08:32:00,31.5,29.7,30.11,South,180,0.0,0.0,93,0.01,CLR,,0.01,54.0,WeatherDisplay:10.37,2013-02-14 13:32:00,
2013-02-14 08:37:00,31.6,29.8,30.11,South,180,0.0,0.0,93,0.01,CLR,,0.01,65.0,WeatherDisplay:10.37,2013-02-14 13:37:00,
2013-02-14 08:42:00,31.6,29.8,30.11,South,180,3.5,3.5,93,0.00,CLR,,0.01,62.0,WeatherDisplay:10.37,2013-02-14 13:42:00,
2013-02-14 08:47:00,31.7,29.9,30.10,South,180,3.5,3.5,93,0.00,CLR,,0.01,72.0,WeatherDisplay:10.37,2013-02-14 13:47:00,
2013-02-14 08:52:00,31.8,30.3,30.10,South,180,3.5,3.5,94,0.00,CLR,,0.01,58.0,WeatherDisplay:10.37,2013-02-14 13:52:00,
2013-02-14 08:57:00,32.1,30.6,30.11,South,180,3.5,3.5,94,0.00,CLR,,0.01,53.0,WeatherDisplay:10.37,2013-02-14 13:57:00,
2013-02-14 09:02:00,32.3,30.8,30.11,South,180,0.0,0.0,94,0.00,OVC,,0.01,49.0,WeatherDisplay:10.37,2013-02-14 14:02:00,
2013-02-14 09:07:00,32.6,31.1,30.11,South,180,0.0,0.0,94,0.00,OVC,,0.01,32.0,WeatherDisplay:10.37,2013-02-14 14:07:00,
2013-02-14 09:12:00,32.8,31.3,30.11,South,180,0.0,0.0,94,0.00,OVC,,0.01,30.0,WeatherDisplay:10.37,2013-02-14 14:12:00,
2013-02-14 09:17:00,33.0,31.2,30.12,South,180,0.0,0.0,93,0.00,OVC,,0.01,28.0,WeatherDisplay:10.37,2013-02-14 14:17:00,
2013-02-14 09:22:00,33.4,31.3,30.12,South,180,0.0,0.0,92,0.00,OVC,,0.01,28.0,WeatherDisplay:10.37,2013-02-14 14:22:00,
2013-02-14 09:27:00,33.9,31.6,30.12,South,180,0.0,0.0,91,0.00,OVC,,0.01,28.0,WeatherDisplay:10.37,2013-02-14 14:27:00,
2013-02-14 09:32:00,34.2,31.6,30.11,South,180,0.0,0.0,90,0.00,OVC,,0.01,28.0,WeatherDisplay:10.37,2013-02-14 14:32:00,
2013-02-14 09:37:00,34.7,31.5,30.11,South,180,0.0,0.0,88,0.00,OVC,,0.01,30.0,WeatherDisplay:10.37,2013-02-14 14:37:00,
2013-02-14 09:42:00,35.3,31.8,30.11,South,179,0.0,0.0,87,0.00,OVC,,0.01,30.0,WeatherDisplay:10.37,2013-02-14 14:42:00,
2013-02-14 09:47:00,35.8,32.0,30.10,South,179,0.0,0.0,86,0.00,OVC,,0.01,32.0,WeatherDisplay:10.37,2013-02-14 14:47:00,
2013-02-14 09:52:00,36.5,32.4,30.09,SE,126,5.0,5.0,85,0.00,OVC,,0.01,32.0,WeatherDisplay:10.37,2013-02-14 14:52:00,
2013-02-14 09:57:00,37.5,31.9,30.09,ENE,63,5.8,5.8,80,0.00,OVC,,0.01,32.0,WeatherDisplay:10.37,2013-02-14 14:57:00,
2013-02-14 10:02:00,38.2,32.6,30.09,ENE,63,6.9,6.9,80,0.00,OVC,,0.01,32.0,WeatherDisplay:10.37,2013-02-14 15:02:00,
2013-02-14 10:07:00,38.9,32.9,30.09,ENE,63,3.5,3.5,79,0.00,OVC,,0.01,33.0,WeatherDisplay:10.37,2013-02-14 15:07:00,
2013-02-14 10:12:00,39.6,33.9,30.09,ENE,61,5.0,5.0,80,0.00,OVC,,0.01,33.0,WeatherDisplay:10.37,2013-02-14 15:12:00,
2013-02-14 10:17:00,40.1,33.5,30.10,WNW,302,3.5,3.5,77,0.00,OVC,,0.01,33.0,WeatherDisplay:10.37,2013-02-14 15:17:00,
2013-02-14 10:22:00,40.6,34.3,30.09,WNW,302,4.0,4.0,78,0.00,OVC,,0.01,35.0,WeatherDisplay:10.37,2013-02-14 15:22:00,
2013-02-14 10:27:00,40.8,34.1,30.10,WNW,302,4.6,4.6,77,0.00,OVC,,0.01,35.0,WeatherDisplay:10.37,2013-02-14 15:27:00,
2013-02-14 10:32:00,41.3,35.3,30.10,West,261,3.5,3.5,79,0.00,OVC,,0.01,67.0,WeatherDisplay:10.37,2013-02-14 15:32:00,
2013-02-14 10:37:00,41.6,34.9,30.10,West,261,4.0,4.0,77,0.00,OVC,,0.01,499.0,WeatherDisplay:10.37,2013-02-14 15:37:00,
2013-02-14 10:42:00,41.9,34.2,30.10,West,261,5.0,5.0,74,0.00,OVC,,0.01,510.0,WeatherDisplay:10.37,2013-02-14 15:42:00,
2013-02-14 10:47:00,42.3,33.6,30.10,West,261,4.6,4.6,71,0.00,OVC,,0.01,527.0,WeatherDisplay:10.37,2013-02-14 15:47:00,
2013-02-14 10:52:00,42.8,35.4,30.11,West,261,5.8,5.8,75,0.00,OVC,,0.01,540.0,WeatherDisplay:10.37,2013-02-14 15:52:00,
2013-02-14 10:57:00,43.5,35.1,30.10,WSW,252,4.6,4.6,72,0.00,OVC,,0.01,555.0,WeatherDisplay:10.37,2013-02-14 15:57:00,
2013-02-14 11:02:00,44.1,34.9,30.11,WSW,252,5.8,5.8,70,0.00,OVC,,0.01,547.0,WeatherDisplay:10.37,2013-02-14 16:02:00,
2013-02-14 11:07:00,44.6,35.1,30.11,WSW,252,4.6,4.6,69,0.00,OVC,,0.01,580.0,WeatherDisplay:10.37,2013-02-14 16:07:00,
2013-02-14 11:12:00,45.0,35.1,30.11,WSW,252,3.5,3.5,68,0.00,OVC,,0.01,563.0,WeatherDisplay:10.37,2013-02-14 16:12:00,
2013-02-14 11:17:00,45.4,35.1,30.11,WSW,252,4.0,4.0,67,0.00,OVC,,0.01,619.0,WeatherDisplay:10.37,2013-02-14 16:17:00,
2013-02-14 11:22:00,45.4,34.7,30.11,WSW,252,4.6,4.6,66,0.00,OVC,,0.01,612.0,WeatherDisplay:10.37,2013-02-14 16:22:00,
2013-02-14 11:27:00,45.6,35.6,30.12,WSW,252,5.8,5.8,68,0.00,OVC,,0.01,631.0,WeatherDisplay:10.37,2013-02-14 16:27:00,
2013-02-14 11:32:00,45.9,35.6,30.11,WSW,252,4.6,4.6,67,0.00,OVC,,0.01,642.0,WeatherDisplay:10.37,2013-02-14 16:32:00,
2013-02-14 11:37:00,46.5,36.1,30.12,WSW,246,6.9,6.9,67,0.00,OVC,,0.01,650.0,WeatherDisplay:10.37,2013-02-14 16:37:00,
2013-02-14 11:42:00,47.0,35.8,30.12,WSW,257,6.9,6.9,65,0.00,OVC,,0.01,657.0,WeatherDisplay:10.37,2013-02-14 16:42:00,
2013-02-14 11:47:00,47.1,34.3,30.12,WSW,253,1.1,1.1,61,0.00,OVC,,0.01,664.0,WeatherDisplay:10.37,2013-02-14 16:47:00,
2013-02-14 11:52:00,47.5,37.1,30.12,SW,221,8.1,8.1,67,0.00,OVC,,0.01,670.0,WeatherDisplay:10.37,2013-02-14 16:52:00,
2013-02-14 11:57:00,48.0,36.4,30.11,SW,221,1.0,0.0,64,0.00,OVC,,0.01,675.0,WeatherDisplay:10.37,2013-02-14 16:57:00,
2013-02-14 12:02:00,48.5,37.3,30.11,SW,222,3.5,3.5,65,0.00,OVC,,0.01,680.0,WeatherDisplay:10.37,2013-02-14 17:02:00,
2013-02-14 12:07:00,48.8,36.8,30.10,SW,221,3.5,3.5,63,0.00,OVC,,0.01,684.0,WeatherDisplay:10.37,2013-02-14 17:07:00,
2013-02-14 12:12:00,48.7,34.6,30.10,SW,222,2.0,0.0,58,0.00,OVC,,0.01,689.0,WeatherDisplay:10.37,2013-02-14 17:12:00,
2013-02-14 12:17:00,48.9,35.6,30.10,SW,222,2.3,2.3,60,0.00,OVC,,0.01,693.0,WeatherDisplay:10.37,2013-02-14 17:17:00,
2013-02-14 12:22:00,49.1,36.2,30.10,SW,222,3.5,3.5,61,0.00,OVC,,0.01,696.0,WeatherDisplay:10.37,2013-02-14 17:22:00,
2013-02-14 12:27:00,49.5,37.0,30.09,SW,216,6.9,6.9,62,0.00,CLR,,0.01,700.0,WeatherDisplay:10.37,2013-02-14 17:27:00,
2013-02-14 12:32:00,49.6,35.0,30.09,SW,216,3.5,3.5,57,0.00,CLR,,0.01,701.0,WeatherDisplay:10.37,2013-02-14 17:32:00,
2013-02-14 12:37:00,49.7,35.1,30.08,SW,216,4.6,4.6,57,0.00,CLR,,0.01,705.0,WeatherDisplay:10.37,2013-02-14 17:37:00,
2013-02-14 12:42:00,50.0,35.4,30.08,SW,215,0.0,0.0,57,0.00,CLR,,0.01,710.0,WeatherDisplay:10.37,2013-02-14 17:42:00,
2013-02-14 12:47:00,50.5,35.8,30.08,SW,215,0.0,0.0,57,0.00,CLR,,0.01,710.0,WeatherDisplay:10.37,2013-02-14 17:47:00,
2013-02-14 12:52:00,51.1,35.0,30.08,SW,215,1.1,0.0,54,0.00,CLR,,0.01,714.0,WeatherDisplay:10.37,2013-02-14 17:52:00,
2013-02-14 12:57:00,51.6,36.4,30.08,SSW,213,3.5,3.5,56,0.00,CLR,,0.01,717.0,WeatherDisplay:10.37,2013-02-14 17:57:00,
2013-02-14 13:02:00,52.1,35.9,30.07,SW,214,2.0,2.0,54,0.00,CLR,,0.01,717.0,WeatherDisplay:10.37,2013-02-14 18:02:00,
2013-02-14 13:07:00,52.1,35.9,30.07,SW,217,5.8,5.8,54,0.00,CLR,,0.01,712.0,WeatherDisplay:10.37,2013-02-14 18:07:00,
2013-02-14 13:12:00,52.2,38.3,30.07,SW,231,10.4,10.4,59,0.00,CLR,,0.01,712.0,WeatherDisplay:10.37,2013-02-14 18:12:00,
2013-02-14 13:17:00,52.2,37.9,30.07,SW,231,4.6,4.6,58,0.00,CLR,,0.01,710.0,WeatherDisplay:10.37,2013-02-14 18:17:00,
2013-02-14 13:22:00,52.2,36.0,30.07,SW,231,4.6,4.6,54,0.00,CLR,,0.01,708.0,WeatherDisplay:10.37,2013-02-14 18:22:00,
2013-02-14 13:27:00,52.6,36.9,30.07,SW,225,4.0,4.0,55,0.00,CLR,,0.01,708.0,WeatherDisplay:10.37,2013-02-14 18:27:00,
2013-02-14 13:32:00,53.0,35.3,30.07,WSW,238,8.1,8.1,51,0.00,CLR,,0.01,707.0,WeatherDisplay:10.37,2013-02-14 18:32:00,
2013-02-14 13:37:00,52.9,34.8,30.07,SW,236,9.2,9.2,50,0.00,CLR,,0.01,701.0,WeatherDisplay:10.37,2013-02-14 18:37:00,
2013-02-14 13:42:00,53.0,36.3,30.08,SW,220,15.0,15.0,53,0.00,CLR,,0.01,696.0,WeatherDisplay:10.37,2013-02-14 18:42:00,
2013-02-14 13:47:00,52.9,36.2,30.08,WSW,244,11.5,11.5,53,0.00,CLR,,0.01,689.0,WeatherDisplay:10.37,2013-02-14 18:47:00,
2013-02-14 13:52:00,52.9,36.2,30.08,WSW,237,4.6,4.6,53,0.00,CLR,,0.01,684.0,WeatherDisplay:10.37,2013-02-14 18:52:00,
2013-02-14 13:57:00,53.0,35.8,30.08,West,261,16.1,16.1,52,0.00,CLR,,0.01,680.0,WeatherDisplay:10.37,2013-02-14 18:57:00,
2013-02-14 14:02:00,53.2,35.0,30.08,WSW,245,11.5,11.5,50,0.00,CLR,,0.01,675.0,WeatherDisplay:10.37,2013-02-14 19:02:00,
2013-02-14 14:07:00,53.2,37.4,30.08,West,267,5.8,5.8,55,0.00,CLR,,0.01,670.0,WeatherDisplay:10.37,2013-02-14 19:07:00,
2013-02-14 14:12:00,53.3,34.6,30.08,West,281,12.7,12.7,49,0.00,CLR,,0.01,661.0,WeatherDisplay:10.37,2013-02-14 19:12:00,
2013-02-14 14:17:00,53.2,35.0,30.07,NW,313,12.7,12.7,50,0.00,CLR,,0.01,656.0,WeatherDisplay:10.37,2013-02-14 19:17:00,
2013-02-14 14:22:00,53.0,35.3,30.07,NW,304,13.8,13.8,51,0.00,CLR,,0.01,649.0,WeatherDisplay:10.37,2013-02-14 19:22:00,
2013-02-14 14:27:00,53.1,35.4,30.07,West,274,6.9,6.9,51,0.00,CLR,,0.01,638.0,WeatherDisplay:10.37,2013-02-14 19:27:00,
2013-02-14 14:32:00,53.2,35.0,30.07,West,278,19.6,19.6,50,0.00,CLR,,0.01,631.0,WeatherDisplay:10.37,2013-02-14 19:32:00,
2013-02-14 14:37:00,53.1,36.9,30.07,WNW,284,13.8,13.8,54,0.00,CLR,,0.01,622.0,WeatherDisplay:10.37,2013-02-14 19:37:00,
2013-02-14 14:42:00,53.5,34.8,30.07,NW,320,11.5,11.5,49,0.00,CLR,,0.01,615.0,WeatherDisplay:10.37,2013-02-14 19:42:00,
2013-02-14 14:47:00,53.6,34.9,30.07,West,263,11.5,11.5,49,0.00,CLR,,0.01,606.0,WeatherDisplay:10.37,2013-02-14 19:47:00,
2013-02-14 14:52:00,53.5,35.8,30.07,WNW,294,15.0,15.0,51,0.00,CLR,,0.01,598.0,WeatherDisplay:10.37,2013-02-14 19:52:00,
2013-02-14 14:57:00,53.8,35.6,30.07,SW,235,12.7,12.7,50,0.00,CLR,,0.01,587.0,WeatherDisplay:10.37,2013-02-14 19:57:00,
2013-02-14 15:02:00,54.0,35.8,30.07,West,278,15.0,15.0,50,0.00,CLR,,0.01,573.0,WeatherDisplay:10.37,2013-02-14 20:02:00,
2013-02-14 15:07:00,53.9,36.2,30.07,West,259,11.5,11.5,51,0.00,CLR,,0.01,564.0,WeatherDisplay:10.37,2013-02-14 20:07:00,
2013-02-14 15:12:00,54.1,35.9,30.07,West,271,16.1,16.1,50,0.00,CLR,,0.01,552.0,WeatherDisplay:10.37,2013-02-14 20:12:00,
2013-02-14 15:17:00,53.8,35.1,30.07,West,273,16.1,16.1,49,0.00,CLR,,0.01,541.0,WeatherDisplay:10.37,2013-02-14 20:17:00,
2013-02-14 15:22:00,53.6,35.4,30.07,West,275,15.0,15.0,50,0.00,CLR,,0.01,527.0,WeatherDisplay:10.37,2013-02-14 20:22:00,
2013-02-14 15:27:00,53.7,35.0,30.07,WNW,296,11.5,11.5,49,0.00,CLR,,0.01,513.0,WeatherDisplay:10.37,2013-02-14 20:27:00,
2013-02-14 15:32:00,53.7,35.5,30.07,West,281,11.5,11.5,50,0.00,CLR,,0.01,503.0,WeatherDisplay:10.37,2013-02-14 20:32:00,
2013-02-14 15:37:00,54.0,35.8,30.06,WNW,290,11.5,11.5,50,0.00,CLR,,0.01,489.0,WeatherDisplay:10.37,2013-02-14 20:37:00,
2013-02-14 15:42:00,53.9,34.6,30.07,WNW,282,13.8,13.8,48,0.00,CLR,,0.01,476.0,WeatherDisplay:10.37,2013-02-14 20:42:00,
2013-02-14 15:47:00,53.9,35.2,30.07,West,273,16.1,16.1,49,0.00,CLR,,0.01,464.0,WeatherDisplay:10.37,2013-02-14 20:47:00,
2013-02-14 15:52:00,54.0,36.3,30.07,WNW,297,13.8,13.8,51,0.00,FEW,,0.01,448.0,WeatherDisplay:10.37,2013-02-14 20:52:00,
2013-02-14 15:57:00,54.1,35.3,30.06,WNW,298,4.6,4.6,49,0.00,FEW,,0.01,434.0,WeatherDisplay:10.37,2013-02-14 20:57:00,
2013-02-14 16:02:00,54.0,35.8,30.07,WNW,298,9.2,9.2,50,0.00,FEW,,0.01,420.0,WeatherDisplay:10.37,2013-02-14 21:02:00,
2013-02-14 16:07:00,53.7,36.0,30.07,West,281,15.0,15.0,51,0.00,SCT,,0.01,404.0,WeatherDisplay:10.37,2013-02-14 21:07:00,
2013-02-14 16:12:00,53.7,36.5,30.06,NW,312,11.5,11.5,52,0.00,SCT,,0.01,387.0,WeatherDisplay:10.37,2013-02-14 21:12:00,
2013-02-14 16:17:00,53.5,35.3,30.06,WNW,297,11.5,11.5,50,0.00,SCT,,0.01,374.0,WeatherDisplay:10.37,2013-02-14 21:17:00,
2013-02-14 16:22:00,53.2,36.0,30.06,WNW,295,17.3,17.3,52,0.00,SCT,,0.01,359.0,WeatherDisplay:10.37,2013-02-14 21:22:00,
2013-02-14 16:27:00,53.3,37.1,30.06,NW,311,11.5,11.5,54,0.00,SCT,,0.01,343.0,WeatherDisplay:10.37,2013-02-14 21:27:00,
2013-02-14 16:32:00,53.6,37.3,30.06,NW,310,11.0,11.0,54,0.00,SCT,,0.01,323.0,WeatherDisplay:10.37,2013-02-14 21:32:00,
2013-02-14 16:37:00,53.5,36.3,30.06,NW,306,13.8,13.8,52,0.00,BKN,,0.01,308.0,WeatherDisplay:10.37,2013-02-14 21:37:00,
2013-02-14 16:42:00,53.2,35.5,30.06,WNW,302,16.1,16.1,51,0.00,BKN,,0.01,292.0,WeatherDisplay:10.37,2013-02-14 21:42:00,
2013-02-14 16:47:00,53.0,35.3,30.06,NW,314,14.0,14.0,51,0.00,BKN,,0.01,274.0,WeatherDisplay:10.37,2013-02-14 21:47:00,
2013-02-14 16:52:00,52.6,35.9,30.06,WNW,296,15.0,15.0,53,0.00,BKN,,0.01,260.0,WeatherDisplay:10.37,2013-02-14 21:52:00,
2013-02-14 16:57:00,52.4,35.3,30.06,WNW,292,13.8,13.8,52,0.00,BKN,,0.01,243.0,WeatherDisplay:10.37,2013-02-14 21:57:00,
2013-02-14 17:02:00,52.4,35.8,30.07,WNW,300,16.1,16.1,53,0.00,BKN,,0.01,225.0,WeatherDisplay:10.37,2013-02-14 22:02:00,
2013-02-14 17:07:00,52.2,35.1,30.07,NW,305,12.7,12.7,52,0.00,BKN,,0.01,207.0,WeatherDisplay:10.37,2013-02-14 22:07:00,
2013-02-14 17:12:00,52.2,35.6,30.07,NW,313,13.8,13.8,53,0.00,BKN,,0.01,192.0,WeatherDisplay:10.37,2013-02-14 22:12:00,
2013-02-14 17:17:00,52.1,35.9,30.07,West,281,11.0,11.0,54,0.00,BKN,,0.01,174.0,WeatherDisplay:10.37,2013-02-14 22:17:00,
2013-02-14 17:22:00,52.0,36.3,30.07,West,278,11.5,11.5,55,0.00,BKN,,0.01,156.0,WeatherDisplay:10.37,2013-02-14 22:22:00,
2013-02-14 17:27:00,51.7,35.1,30.07,NW,322,15.0,15.0,53,0.00,BKN,,0.01,142.0,WeatherDisplay:10.37,2013-02-14 22:27:00,
2013-02-14 17:32:00,51.5,36.3,30.07,WNW,300,10.4,10.4,56,0.00,BKN,,0.01,127.0,WeatherDisplay:10.37,2013-02-14 22:32:00,
2013-02-14 17:37:00,51.5,37.2,30.07,WNW,303,12.7,12.7,58,0.00,BKN,,0.01,113.0,WeatherDisplay:10.37,2013-02-14 22:37:00,
2013-02-14 17:42:00,51.4,35.8,30.07,WNW,297,11.5,11.5,55,0.00,BKN,,0.01,95.0,WeatherDisplay:10.37,2013-02-14 22:42:00,
2013-02-14 17:47:00,51.1,35.5,30.07,WNW,294,13.8,13.8,55,0.00,BKN,,0.01,77.0,WeatherDisplay:10.37,2013-02-14 22:47:00,
2013-02-14 17:52:00,50.9,35.7,30.07,WNW,298,11.5,11.5,56,0.00,BKN,,0.01,62.0,WeatherDisplay:10.37,2013-02-14 22:52:00,
2013-02-14 17:57:00,50.6,35.9,30.07,NW,304,7.0,7.0,57,0.00,BKN,,0.01,49.0,WeatherDisplay:10.37,2013-02-14 22:57:00,
2013-02-14 18:02:00,50.3,35.2,30.07,NW,323,11.5,11.5,56,0.00,CLR,,0.01,35.0,WeatherDisplay:10.37,2013-02-14 23:02:00,
2013-02-14 18:07:00,50.1,35.4,30.06,NW,304,5.8,5.8,57,0.00,CLR,,0.01,21.0,WeatherDisplay:10.37,2013-02-14 23:07:00,
2013-02-14 18:12:00,49.8,35.2,30.06,NW,304,5.0,5.0,57,0.00,CLR,,0.01,9.0,WeatherDisplay:10.37,2013-02-14 23:12:00,
2013-02-14 18:17:00,49.4,34.8,30.06,WNW,285,4.6,4.6,57,0.00,CLR,,0.01,5.0,WeatherDisplay:10.37,2013-02-14 23:17:00,
2013-02-14 18:22:00,49.0,34.9,30.06,WNW,288,9.2,9.2,58,0.00,CLR,,0.01,0.0,WeatherDisplay:10.37,2013-02-14 23:22:00,
2013-02-14 18:27:00,48.6,34.9,30.06,WNW,288,4.6,4.6,59,0.00,CLR,,0.01,0.0,WeatherDisplay:10.37,2013-02-14 23:27:00,
2013-02-14 18:32:00,48.2,34.5,30.07,WNW,288,6.9,6.9,59,0.00,CLR,,0.01,0.0,WeatherDisplay:10.37,2013-02-14 23:32:00,
2013-02-14 18:37:00,47.8,34.6,30.07,West,281,5.8,5.8,60,0.00,CLR,,0.01,0.0,WeatherDisplay:10.37,2013-02-14 23:37:00,
2013-02-14 18:42:00,47.6,34.8,30.07,West,281,6.0,6.0,61,0.00,CLR,,0.01,0.0,WeatherDisplay:10.37,2013-02-14 23:42:00,
2013-02-14 18:47:00,47.3,34.9,30.08,West,281,5.8,5.8,62,0.00,CLR,,0.01,0.0,WeatherDisplay:10.37,2013-02-14 23:47:00,
2013-02-14 18:52:00,47.0,34.6,30.08,West,281,1.1,1.1,62,0.00,CLR,,0.01,0.0,WeatherDisplay:10.37,2013-02-14 23:52:00,
2013-02-14 18:57:00,46.7,35.2,30.08,West,281,3.5,3.5,64,0.00,CLR,,0.01,0.0,WeatherDisplay:10.37,2013-02-14 23:57:00,
2013-02-14 19:02:00,46.4,35.3,30.08,West,281,3.5,3.5,65,0.00,CLR,,0.01,0.0,WeatherDisplay:10.37,2013-02-15 00:02:00,
2013-02-14 19:07:00,46.2,35.1,30.08,West,281,4.0,4.0,65,0.00,CLR,,0.01,0.0,WeatherDisplay:10.37,2013-02-15 00:07:00,
2013-02-14 19:12:00,46.0,35.3,30.08,West,281,0.0,0.0,66,0.00,CLR,,0.01,0.0,WeatherDisplay:10.37,2013-02-15 00:12:00,
2013-02-14 19:17:00,45.8,35.1,30.08,West,281,0.0,0.0,66,0.00,CLR,,0.01,0.0,WeatherDisplay:10.37,2013-02-15 00:17:00,
2013-02-14 19:22:00,45.5,35.2,30.08,West,281,0.0,0.0,67,0.00,CLR,,0.01,0.0,WeatherDisplay:10.37,2013-02-15 00:22:00,
2013-02-14 19:27:00,45.3,35.0,30.08,West,281,0.0,0.0,67,0.00,CLR,,0.01,0.0,WeatherDisplay:10.37,2013-02-15 00:27:00,
2013-02-14 19:32:00,45.1,35.2,30.08,West,281,4.6,4.6,68,0.00,CLR,,0.01,0.0,WeatherDisplay:10.37,2013-02-15 00:32:00,
2013-02-14 19:37:00,44.8,35.2,30.08,West,281,6.9,6.9,69,0.00,CLR,,0.01,0.0,WeatherDisplay:10.37,2013-02-15 00:37:00,
2013-02-14 19:42:00,44.6,35.1,30.08,West,281,4.6,4.6,69,0.00,CLR,,0.01,0.0,WeatherDisplay:10.37,2013-02-15 00:42:00,
2013-02-14 19:47:00,44.5,35.3,30.08,West,277,5.8,5.8,70,0.00,CLR,,0.01,0.0,WeatherDisplay:10.37,2013-02-15 00:47:00,
2013-02-14 19:52:00,44.5,35.3,30.08,West,273,6.0,6.0,70,0.00,CLR,,0.01,0.0,WeatherDisplay:10.37,2013-02-15 00:52:00,
2013-02-14 19:57:00,44.5,35.3,30.08,West,273,2.3,2.3,70,0.00,CLR,,0.01,0.0,WeatherDisplay:10.37,2013-02-15 00:57:00,
2013-02-14 20:02:00,44.3,35.1,30.08,West,273,4.6,4.6,70,0.00,CLR,,0.01,0.0,WeatherDisplay:10.37,2013-02-15 01:02:00,
2013-02-14 20:07:00,44.2,35.0,30.08,West,273,0.0,0.0,70,0.00,CLR,,0.01,0.0,WeatherDisplay:10.37,2013-02-15 01:07:00,
2013-02-14 20:12:00,44.0,35.2,30.08,West,273,3.5,3.5,71,0.00,CLR,,0.01,0.0,WeatherDisplay:10.37,2013-02-15 01:12:00,
2013-02-14 20:17:00,43.8,35.0,30.08,West,273,3.0,3.0,71,0.00,CLR,,0.01,0.0,WeatherDisplay:10.37,2013-02-15 01:17:00,
2013-02-14 20:22:00,43.6,35.2,30.08,West,273,4.0,4.0,72,0.00,CLR,,0.01,0.0,WeatherDisplay:10.37,2013-02-15 01:22:00,
2013-02-14 20:27:00,43.5,35.1,30.08,West,273,3.5,3.5,72,0.00,CLR,,0.01,0.0,WeatherDisplay:10.37,2013-02-15 01:27:00,
2013-02-14 20:32:00,43.4,35.0,30.08,West,271,5.8,5.8,72,0.00,CLR,,0.01,0.0,WeatherDisplay:10.37,2013-02-15 01:32:00,
2013-02-14 20:37:00,43.1,35.0,30.08,West,262,6.9,6.9,73,0.00,CLR,,0.01,0.0,WeatherDisplay:10.37,2013-02-15 01:37:00,
2013-02-14 20:42:00,42.8,35.1,30.08,WSW,253,6.9,6.9,74,0.00,CLR,,0.01,0.0,WeatherDisplay:10.37,2013-02-15 01:42:00,
2013-02-14 20:47:00,42.5,35.1,30.09,SW,226,9.2,9.2,75,0.00,CLR,,0.01,0.0,WeatherDisplay:10.37,2013-02-15 01:47:00,
2013-02-14 20:52:00,42.5,34.8,30.09,SW,225,5.8,5.8,74,0.00,CLR,,0.01,0.0,WeatherDisplay:10.37,2013-02-15 01:52:00,
2013-02-14 20:57:00,42.5,35.1,30.09,SW,223,5.8,5.8,75,0.00,CLR,,0.01,0.0,WeatherDisplay:10.37,2013-02-15 01:57:00,
2013-02-14 21:02:00,42.4,35.0,30.09,SW,221,3.5,3.5,75,0.00,CLR,,0.01,0.0,WeatherDisplay:10.37,2013-02-15 02:02:00,
2013-02-14 21:07:00,41.9,34.6,30.09,SW,221,3.5,3.5,75,0.00,CLR,,0.01,0.0,WeatherDisplay:10.37,2013-02-15 02:07:00,
2013-02-14 21:12:00,41.6,34.6,30.09,SW,221,3.5,3.5,76,0.00,CLR,,0.01,0.0,WeatherDisplay:10.37,2013-02-15 02:12:00,
2013-02-14 21:17:00,41.0,34.0,30.10,SW,221,3.5,3.5,76,0.00,CLR,,0.01,0.0,WeatherDisplay:10.37,2013-02-15 02:17:00,
2013-02-14 21:22:00,40.2,33.9,30.10,SW,221,4.0,4.0,78,0.00,CLR,,0.01,0.0,WeatherDisplay:10.37,2013-02-15 02:22:00,
2013-02-14 21:27:00,39.7,33.7,30.11,SW,221,4.6,4.6,79,0.00,CLR,,0.01,0.0,WeatherDisplay:10.37,2013-02-15 02:27:00,
2013-02-14 21:32:00,39.5,33.8,30.10,SW,221,2.3,2.3,80,0.00,CLR,,0.01,0.0,WeatherDisplay:10.37,2013-02-15 02:32:00,
2013-02-14 21:37:00,39.2,33.9,30.11,SW,221,0.0,0.0,81,0.00,CLR,,0.01,0.0,WeatherDisplay:10.37,2013-02-15 02:37:00,
2013-02-14 21:42:00,39.1,34.1,30.11,SW,221,2.3,2.3,82,0.00,CLR,,0.01,0.0,WeatherDisplay:10.37,2013-02-15 02:42:00,
2013-02-14 21:47:00,38.7,33.7,30.10,SW,221,3.5,3.5,82,0.00,CLR,,0.01,0.0,WeatherDisplay:10.37,2013-02-15 02:47:00,
2013-02-14 21:52:00,38.7,34.0,30.11,SW,221,0.0,0.0,83,0.00,CLR,,0.01,0.0,WeatherDisplay:10.37,2013-02-15 02:52:00,
2013-02-14 21:57:00,38.4,33.7,30.11,SW,221,0.0,0.0,83,0.00,CLR,,0.01,0.0,WeatherDisplay:10.37,2013-02-15 02:57:00,
2013-02-14 22:02:00,37.9,33.5,30.11,NNW,340,0.0,0.0,84,0.00,CLR,,0.01,0.0,WeatherDisplay:10.37,2013-02-15 03:02:00,
2013-02-14 22:07:00,37.6,33.5,30.11,NNW,340,0.0,0.0,85,0.00,CLR,,0.01,0.0,WeatherDisplay:10.37,2013-02-15 03:07:00,
2013-02-14 22:12:00,37.4,33.0,30.11,NNW,340,3.5,3.5,84,0.00,CLR,,0.01,0.0,WeatherDisplay:10.37,2013-02-15 03:12:00,
2013-02-14 22:17:00,37.0,33.2,30.11,NNW,340,0.0,0.0,86,0.00,CLR,,0.01,0.0,WeatherDisplay:10.37,2013-02-15 03:17:00,
2013-02-14 22:22:00,37.0,33.5,30.11,NNW,340,0.0,0.0,87,0.00,CLR,,0.01,0.0,WeatherDisplay:10.37,2013-02-15 03:22:00,
2013-02-14 22:27:00,37.1,33.3,30.11,NNW,340,0.0,0.0,86,0.00,CLR,,0.01,0.0,WeatherDisplay:10.37,2013-02-15 03:27:00,
2013-02-14 22:32:00,37.1,33.3,30.11,NNW,340,3.5,3.6,86,0.00,CLR,,0.01,0.0,WeatherDisplay:10.37,2013-02-15 03:32:00,
2013-02-14 22:37:00,37.1,33.3,30.11,NNW,340,4.0,4.0,86,0.00,CLR,,0.01,0.0,WeatherDisplay:10.37,2013-02-15 03:37:00,
2013-02-14 22:42:00,37.0,33.2,30.11,NNW,340,3.5,3.5,86,0.00,CLR,,0.01,0.0,WeatherDisplay:10.37,2013-02-15 03:42:00,
2013-02-14 22:47:00,37.1,33.6,30.11,NNW,340,0.0,0.0,87,0.00,CLR,,0.01,0.0,WeatherDisplay:10.37,2013-02-15 03:47:00,
2013-02-14 22:52:00,37.0,33.2,30.11,NNW,340,0.0,0.0,86,0.00,CLR,,0.01,0.0,WeatherDisplay:10.37,2013-02-15 03:52:00,
2013-02-14 22:57:00,37.2,33.7,30.11,NNW,339,3.5,3.5,87,0.00,CLR,,0.01,0.0,WeatherDisplay:10.37,2013-02-15 03:57:00,
2013-02-14 23:02:00,37.4,33.6,30.11,NNW,339,0.0,0.0,86,0.00,CLR,,0.01,0.0,WeatherDisplay:10.37,2013-02-15 04:02:00,
2013-02-14 23:07:00,37.9,34.1,30.11,NNW,339,2.3,2.3,86,0.00,CLR,,0.01,0.0,WeatherDisplay:10.37,2013-02-15 04:07:00,
2013-02-14 23:12:00,38.4,34.3,30.11,NNW,339,0.0,0.0,85,0.00,CLR,,0.01,0.0,WeatherDisplay:10.37,2013-02-15 04:12:00,
2013-02-14 23:17:00,38.8,34.4,30.11,NNW,339,0.0,0.0,84,0.00,CLR,,0.01,0.0,WeatherDisplay:10.37,2013-02-15 04:17:00,
2013-02-14 23:22:00,39.1,34.4,30.11,NNW,339,0.0,0.0,83,0.00,CLR,,0.01,0.0,WeatherDisplay:10.37,2013-02-15 04:22:00,
2013-02-14 23:27:00,39.1,34.1,30.11,NNW,339,0.0,0.0,82,0.00,CLR,,0.01,0.0,WeatherDisplay:10.37,2013-02-15 04:27:00,
2013-02-14 23:32:00,39.2,34.2,30.11,NNW,339,0.0,0.0,82,0.00,CLR,,0.01,0.0,WeatherDisplay:10.37,2013-02-15 04:32:00,
2013-02-14 23:37:00,38.9,33.9,30.11,NNW,339,0.0,0.0,82,0.00,CLR,,0.01,0.0,WeatherDisplay:10.37,2013-02-15 04:37:00,
2013-02-14 23:42:00,38.8,34.1,30.11,NNW,339,0.0,0.0,83,0.00,CLR,,0.01,0.0,WeatherDisplay:10.37,2013-02-15 04:42:00,
2013-02-14 23:47:00,38.8,34.1,30.11,NNW,339,0.0,0.0,83,0.00,CLR,,0.01,0.0,WeatherDisplay:10.37,2013-02-15 04:47:00,
2013-02-14 23:52:00,38.4,33.7,30.11,NNW,339,2.3,2.3,83,0.00,CLR,,0.01,0.0,WeatherDisplay:10.37,2013-02-15 04:52:00,
2013-02-14 23:57:00,38.3,33.9,30.11,NNW,339,2.3,0.0,84,0.00,CLR,,0.01,0.0,WeatherDisplay:10.37,2013-02-15 04:57:00,